Location: Albert Place
(40.7505°N, 111.9230°W)
Time: 13:14:37
(UTC+00:00)

Cosmos 1570 Rocket - Pass Details

Date: 13 December 2025
Orbit: 759 x 784 km, 74.1° (Epoch: 17 January)

Event Time Altitude Azimuth Distance (km) Brightness Sun altitude
Rises 13:32:43 0° 193° (SSW) 3,237 7.3 -13.0°
Reaches altitude 10° 13:35:05 10° 192° (SSW) 2,318 6.6 -12.6°
Maximum altitude 13:40:21 78° 108° (ESE) 801 4.2 -11.6°
Drops below altitude 10° 13:45:41 10° 22° (NNE) 2,346 6.5 -10.7°
Sets 13:48:05 0° 21° (NNE) 3,279 7.3 -10.3°
